RH
38 44 48 51 56 56 57 61 66 67 69 71 71 75 74 72 68 68 84 93 89 91 85 84 94 91 95 96 88 93 86 91
45 48 49 54 57 58 61 67 71 69 73 74 71 74 71 68 64 63 66 86 89 88 83 85 86 86 80 90 93 92 98 95
46 50 54 60 64 64 65 66 69 68 70 72 78 78 79 73 69 66 64 65 79 87 89 88 87 91 90 89 92 98 98 94
47 48 58 63 67 70 68 68 66 67 69 70 72 73 73 78 75 74 70 68 69 73 84 88 90 93 89 96 98 96 99 99
45 48 56 62 69 68 69 68 68 62 70 76 81 84 86 80 78 74 74 71 74 74 75 78 88 93 94 96 95 92 92 93
48 52 54 58 66 74 72 68 68 68 71 76 80 83 80 77 78 79 78 77 76 75 78 79 79 95 94 94 93 89 86 91
48 48 51 61 68 76 74 70 68 68 71 73 80 82 79 81 80 82 80 81 84 82 78 84 80 79 92 93 89 89 92 86
53 54 57 61 71 74 65 71 73 70 72 71 76 82 79 83 83 84 85 88 89 88 84 87 89 80 81 91 92 92 93 93
54 56 61 64 65 71 75 75 77 77 76 77 74 79 82 82 84 83 85 87 86 84 87 85 91 95 90 90 91 92 95 93
53 58 61 63 64 71 75 76 80 80 80 82 79 80 84 87 86 86 87 88 86 89 89 85 82 87 87 88 82 94 91 91
54 58 61 63 65 70 76 76 77 80 81 81 81 83 84 86 88 89 88 88 90 93 91 88 85 79 80 83 87 94 94 94
57 60 62 65 66 68 74 78 80 83 82 82 84 85 85 85 88 88 89 90 89 91 93 90 84 82 79 87 93 92 93 92
59 61 63 68 70 70 71 77 81 82 81 82 85 84 84 86 88 87 88 89 88 89 92 96 85 76 75 94 94 90 89 94
65 66 69 72 71 71 73 78 82 82 80 84 86 86 86 87 87 87 86 88 87 86 89 92 94 87 84 92 91 91 90 91
67 70 71 72 71 74 75 82 83 84 84 86 89 90 89 87 86 86 86 86 88 87 88 90 92 94 97 95 96 96 96 95
68 69 73 75 75 79 76 81 83 83 86 90 92 90 88 86 86 86 86 87 86 86 88 88 91 93 89 95 96 96 96 98
70 72 73 79 81 86 85 88 85 84 89 96 94 90 89 91 86 86 86 88 87 87 90 90 92 89 96 96 98 98 97 99
78 84 87 88 95 95 95 97 92 90 94 94 96 92 97 97 90 87 90 94 89 90 90 91 93 95 96 96 98 96 98 98
87 94 94 96 97 96 96 96 94 93 92 93 96 91 92 96 94 97 97 94 96 96 94 93 93 94 97 98 99 95 94 96
Wind_Speed
14 16 15 14 15 14 13 11 13 11 9 8 6 6 7 7 6 6 6 6 10 9 9 10 6 6 5 5 11 8 9 8
17 15 14 15 14 14 11 10 8 7 6 7 8 8 8 8 8 10 11 6 9 12 10 11 11 11 12 10 8 9 3 5
16 14 13 14 11 9 9 8 7 5 6 5 4 7 5 9 9 11 10 10 7 11 13 12 13 11 11 10 11 3 2 8
19 14 14 12 12 11 11 10 10 9 11 8 7 6 6 5 7 11 12 14 14 11 15 13 12 11 12 7 4 3 6 1
18 17 15 13 12 14 11 9 9 10 9 8 9 7 10 8 10 11 12 17 15 15 16 17 15 10 11 11 8 6 16 14
18 18 15 15 14 11 7 9 8 9 10 8 7 9 9 9 10 15 15 14 15 14 15 16 16 10 12 12 12 12 15 13
17 17 15 15 11 8 6 11 12 12 12 12 11 12 14 12 12 12 11 11 12 14 14 14 14 15 13 13 15 19 14 13
16 16 12 15 9 7 9 12 13 15 14 14 15 12 13 14 14 12 16 12 12 14 14 14 9 13 13 11 13 15 15 15
15 14 12 12 11 9 9 11 13 13 14 15 15 14 9 10 12 13 13 13 14 18 16 15 10 6 10 16 13 11 11 12
13 16 14 13 11 12 13 12 12 14 14 13 15 15 14 13 16 15 13 15 14 20 17 17 12 14 12 15 15 15 13 12
13 14 14 12 11 9 11 12 13 14 14 13 12 14 15 15 14 15 16 16 16 16 14 15 16 14 14 18 14 10 14 12
13 12 10 10 11 11 11 13 14 14 14 14 14 15 15 15 13 14 14 16 16 15 16 16 16 17 14 14 13 13 14 14
10 10 12 10 11 12 13 13 13 14 14 14 14 14 15 14 15 15 15 16 15 15 14 16 11 11 11 12 13 13 15 16
10 11 12 13 13 12 12 12 13 13 14 14 15 15 15 15 16 16 15 17 17 16 14 14 15 5 13 13 15 15 13 14
13 12 12 12 13 12 12 12 13 14 14 15 16 15 15 15 15 16 17 17 18 18 16 16 17 16 14 14 10 9 8 8
14 13 12 11 11 11 12 13 13 14 14 14 15 14 14 14 15 16 16 17 17 17 16 14 15 15 12 13 9 6 10 7
10 11 13 13 14 12 12 13 13 12 12 13 13 13 14 15 15 17 17 18 17 16 17 17 17 10 23 31 22 9 8 7
11 12 12 12 11 11 11 11 11 12 12 13 13 12 14 14 15 15 16 18 16 18 18 18 19 19 26 32 31 14 11 10
10 9 10 10 9 10 10 9 11 11 12 12 11 14 15 15 16 16 16 13 15 17 19 19 18 19 29 30 21 20 15 17
Wind_Direction
108 93 84 73 68 57 44 36 21 3 354 347 350 348 352 343 322 290 266 215 210 217 228 222 216 209 200 192 193 194 189 180
95 86 80 74 61 57 45 36 13 4 353 354 343 333 324 319 315 311 320 313 220 221 224 228 222 224 218 203 200 187 177 153
93 83 76 77 69 61 51 38 13 357 4 348 345 343 330 319 313 306 296 286 267 249 220 222 218 223 227 214 204 169 140 166
98 83 77 71 65 54 44 25 15 15 2 355 349 330 328 316 317 313 311 313 312 284 245 224 218 215 217 197 202 191 173 320
90 88 74 65 57 53 35 20 11 2 354 6 358 331 319 312 304 302 301 304 301 301 301 243 220 217 214 195 180 234 160 232
94 89 82 71 61 48 21 7 359 354 5 6 349 328 310 306 303 302 300 298 297 293 297 281 231 211 213 192 186 194 192 177
81 79 73 67 61 50 14 5 0 1 359 352 344 332 320 315 307 301 296 296 294 288 279 289 245 229 215 205 194 197 194 202
69 63 63 65 55 47 27 17 1 353 348 347 338 329 322 313 309 305 301 295 286 282 277 277 264 235 233 220 206 194 192 196
73 71 65 57 48 37 31 19 4 352 348 342 335 332 327 316 307 307 294 288 282 277 268 263 250 220 212 221 217 205 194 198
65 61 56 52 41 33 27 7 5 354 350 342 336 335 330 323 315 300 296 293 282 278 254 258 244 229 197 230 221 202 197 200
55 63 50 43 30 30 27 9 1 354 349 348 341 335 332 323 317 311 307 302 299 296 266 246 238 223 228 226 219 188 182 184
53 54 49 41 31 20 19 7 359 356 353 348 343 341 336 330 324 316 317 314 313 313 311 252 244 227 214 225 204 188 180 182
58 50 42 32 28 16 17 8 358 355 352 352 350 342 337 338 328 329 331 327 331 331 323 314 262 236 227 208 203 200 190 195
57 47 37 29 19 10 12 7 359 354 353 354 356 347 344 344 338 342 341 343 349 347 350 354 345 278 237 209 219 212 204 199
39 34 27 24 16 5 7 8 5 359 358 360 357 350 350 344 350 350 353 355 359 358 359 3 15 11 27 342 234 191 162 170
27 24 20 16 11 7 9 9 7 2 0 359 359 352 350 357 3 3 3 6 6 3 0 8 13 22 11 344 309 185 146 150
31 30 25 20 13 9 9 8 3 0 3 1 1 355 359 6 9 13 13 13 11 13 11 14 20 14 13 16 355 191 151 135
40 31 33 24 15 12 12 4 356 4 5 3 4 357 8 10 12 18 18 20 9 24 23 20 22 16 15 42 12 31 61 68
37 28 29 25 15 15 12 3 10 9 9 6 1 9 12 8 14 17 16 14 15 24 24 24 28 21 19 43 32 44 32 42